ICEYE-X1 (43114 NORAD) Tracking and Keplerian Element Data

This shows tracking and keplerian element data for the satellite.

Feedback or suggestion? Click here.




ElementValue
Catalog43114
NameICEYE-X1
Epoch Orbit18486
Epoch Day130.93210937
Epoch Year2021
RAAN203.905
Inclination97.4059
Eccentricity0.0008818
Argument of Perigee340.4023
Mean Anonmoly19.6874
Mean Motion15.24380479
Decay Rate1.155E-05
L11 43114U 18004D 21130.93210937 .00001155 00000-0 50049-4 0 9991
L22 43114 97.4059 203.9050 0008818 340.4023 19.6874 15.24380479184864

Live tracking and technical data element details for ICEYE-X1 (NORAD 43114). ICEYE-X1 can be tracked NOW for your location showing map with azimuth and elevation plus other details from your city location.

Track the satellite on the map from your city or location and see movement details for azimuth, elevation, latitude, longitude, range, height, and movement on the map or in text.







IsCatalogInMostPopularTable: catalog: 43114, numindb: 667
Update: records affected: 1



GetName: 43114 ICEYE-X1

Hit Count: updated at: Tue, 11 May 2021 20:08:22 GMT